User: anonymous   Login
Location: Fort Wayne
(41.1310°N, 85.1290°W)
Time: 10:04:40
(UTC-04:00)
Language:

Meteor 2-9 Rocket - Orbit

View from above orbital plane
View from above orbital plane
View from above satellite
View from above satellite

Ground track
Ground track

The orbit data is extracted from the following two-line orbital elements,

1 13719U 82116B   15123.86143753  .00000076  00000-0  32003-4 0  9993
2 13719 081.2572 039.8606 0072734 044.9466 018.2290 14.14538189670757
Epoch (UTC): 03 May 2015 20:40:28
Eccentricity: 0.0072734
inclination: 81.2572°
perigee height: 791 km
apogee height: 896 km
right ascension of ascending node: 39.8606°
argument of perigee: 44.9466°
revolutions per day: 14.14538189
mean anomaly at epoch: 18.2290°
orbit number at epoch: 67075

The dashed part of the orbit path shows where the satellite is in the earth's shadow,  

DLR